User: anonymous   Login
Location: Vallejo Observatory
(38.1221°N, 122.2109°W)
Time: 09:42:18
(UTC-07:00)
Language:

MOS 1 Rocket - Orbit

View from above orbital plane
View from above orbital plane
View from above satellite
View from above satellite

Ground track
Ground track

The orbit data is extracted from the following two-line orbital elements,

1 17528U 87018B   18140.81552056  .00000039  00000-0  18441-4 0  9997
2 17528  97.4847  65.3155 0151544 320.9272 101.5690 14.50851648648837
Epoch (UTC): 20 May 2018 19:34:20
Eccentricity: 0.0151544
inclination: 97.4847°
perigee height: 615 km
apogee height: 830 km
right ascension of ascending node: 65.3155°
argument of perigee: 320.9272°
revolutions per day: 14.50851648
mean anomaly at epoch: 101.5690°
orbit number at epoch: 64883

The dashed part of the orbit path shows where the satellite is in the earth's shadow,  

DLR